sat.trackr.live / text

‹ back to catalog

ASTROCAST-0404

NORAD 55112 · 2023-001DH

PAYLOAD ACTIVE UNKNOWN

§ Identity

Operator
Country
SWTZ
Launch date
2023-01-03
Launch site
AFETR
Launch vehicle
Mass (kg)
RCS (m²)

External: N2YO · Heavens-Above · Gunter

§ Orbital elements

Epoch: 2026-05-25T05:17:47.915808Z

Period
94.27 min
Inclination
97.5650°
Eccentricity
0.0008053
Mean motion
15.27606269 rev/d
Perigee alt
477.4 km
Apogee alt
488.5 km
Semi-major
6,861.1 km
B*
7.4072e-4
RAAN
238.9739°
Arg perigee
84.6839°
Mean anomaly
275.5318°
Rev number
14,102

§ Raw data

ASTROCAST-04041 55112U 23001DH  26145.22069347  .00019968  00000+0  74072-3 0  99962 55112  97.5650 238.9739 0008053  84.6839 275.5318 15.27606269141026

JSON: /api/v1/satellites/55112 · /tle

For live sub-satellite position, see the globe view (requires WebGL).

§ Visibility from observer

Set your observer location to see the next 7 days of passes ≥ 10°. The values pass through the URL so the page stays shareable.

No JS? Fill the form by hand. The geolocation button needs JavaScript.